Hourly Data Report for September 15, 2021

WINNIPEG THE FORKS
MANITOBA
Current Station Operator: ECCC - MSC

49°53'18.008" N
97°07'46.007" W
230.00 m
5023262
71579
XWN

Download Data

Hourly Data (September 2021)
Hourly Data Report for September 15, 2021
TIME
LST
Temp Definition
°C
Dew Point Definition
°C
Rel Hum Definition
%
Precip. Amount Definition
mm

Wind Dir Definition
10's deg

Wind Spd Definition
km/h
Visibility Definition
km
Stn Press Definition
kPa
Hmdx Definition


Wind Chill Definition


Weather Definition


00:00 11.6 7.4 75 0.0   0   98.31     LegendNANA
01:00 11.4 7.6 77 0.0 20 3   98.29     LegendNANA
02:00 11.3 6.6 73 0.0 21 3   98.26     LegendNANA
03:00 10.2 6.4 77 0.0 21 1   98.27     LegendNANA
04:00 9.8 5.9 76 0.0 20 5   98.26     LegendNANA
05:00 9.9 4.5 69 0.0 20 6   98.25     LegendNANA
06:00 8.8 5.0 77 0.0 19 2   98.20     LegendNANA
07:00 9.1 4.8 74 0.0 21 2   98.21     LegendNANA
08:00 11.6 5.2 65 0.0 19 2   98.18     LegendNANA
09:00 12.9 5.7 61 0.0 26 1   98.10     LegendNANA
10:00 15.3 6.0 54 0.0 10 2   98.04     LegendNANA
11:00 17.2 5.9 47 0.0 31 2   97.99     LegendNANA
12:00 17.9 6.6 48 0.0 35 3   97.89     LegendNANA
13:00 19.7 8.7 49 0.0 32 3   97.79     LegendNANA
14:00 21.1 9.4 47 0.0 26 5   97.60     LegendNANA
15:00 21.7 10.3 48 0.0 21 8   97.48     LegendNANA
16:00 22.7 11.3 48 0.0 21 8   97.39 25   LegendNANA
17:00 22.3 10.8 48 0.0 20 13   97.36     LegendNANA
18:00 21.2 9.9 48 0.0 20 11   97.34     LegendNANA
19:00 20.3 9.9 51 0.0 20 11   97.35     LegendNANA
20:00 19.4 10.7 57 0.0 20 8   97.34     LegendNANA
21:00 19.3 10.9 58 0.0 20 8   97.31     LegendNANA
22:00 18.8 10.8 60 0.0 21 14   97.40     LegendNANA
23:00 17.6 11.6 68 0.0 24 9   97.44     LegendNANA

Notes on Data Quality.

Legend

  • E = Estimated
  • M = Missing
  • NA = Not Available*
  • [empty] = Indicates an unobserved value
Date modified: